Dewpoint
54 44 43 44 38 34 28 19 13 15 14 14 13 11 11 10 9 8 7 9 9 11 13 24 23 37 26 23 34 40 43 39 43 39 47 63 65 64 63 60 63 62 62 64 68 72 71 72 72 71 71 70 70 71 72 72 73 73 73 73 73 73 73 73 73 73 73 73 73 72 72 72 72 72 72 72 71 70 70 69 69 69 68 68 68 68 68 67 67 68 69 68 68 68 69 70 69
44 44 39 42 30 22 19 17 15 13 14 13 11 11 10 11 13 7 7 8 9 8 8 11 22 23 32 38 35 38 40 49 51 58 63 63 64 64 62 62 62 62 63 64 68 69 69 70 72 72 71 70 70 71 72 72 73 73 73 73 73 73 73 73 73 73 73 73 72 72 72 72 72 72 71 71 71 70 70 69 70 69 67 67 66 65 65 66 68 68 68 69 69 69 70 69 69
43 40 23 28 20 17 18 17 13 14 12 14 13 11 10 8 7 8 9 9 10 10 9 11 19 27 32 42 40 32 48 50 56 59 62 64 62 65 61 63 62 62 63 65 67 67 68 70 72 72 70 70 71 71 72 72 73 73 73 73 73 73 73 73 73 73 73 73 72 72 72 72 72 71 71 71 70 70 70 70 69 68 68 67 67 67 67 68 68 68 69 69 69 69 69 69 68
46 40 31 19 17 17 18 16 14 12 12 13 12 11 10 9 8 10 10 10 10 9 10 10 14 31 28 22 35 45 50 56 59 58 62 62 63 63 62 63 65 62 65 65 66 65 68 71 72 71 70 70 71 71 72 73 73 73 73 73 73 73 73 73 73 73 73 72 72 72 72 72 72 72 71 70 70 70 70 69 69 69 69 68 67 67 67 68 68 68 69 69 69 68 69 69 69
36 29 29 20 17 20 17 16 14 12 10 12 11 10 10 9 10 10 11 11 10 9 12 13 11 32 36 36 44 38 48 57 60 61 60 62 64 63 63 63 64 64 63 64 65 66 67 72 72 72 71 70 71 71 72 72 73 73 73 73 73 73 73 73 73 73 72 72 72 72 72 72 71 71 70 70 69 69 70 70 69 68 67 68 68 68 68 68 68 68 69 69 69 69 69 69 68
25 21 25 18 18 18 15 15 15 11 11 10 10 9 10 9 11 11 11 11 11 14 15 14 13 16 17 42 48 46 56 52 61 62 61 63 63 63 63 65 65 64 63 66 66 66 68 72 72 72 71 71 71 71 72 72 72 72 72 73 73 73 73 73 72 72 72 73 72 72 72 71 71 71 70 70 70 70 70 69 69 68 68 68 68 68 68 69 69 69 69 70 70 69 68 69 69
19 18 18 16 16 16 16 14 11 10 10 10 10 9 10 10 11 11 11 10 13 14 18 19 19 18 17 46 58 60 63 63 61 62 62 64 63 64 65 64 65 64 65 65 66 66 69 72 72 72 72 71 71 71 72 72 73 73 73 73 73 73 73 73 72 72 72 72 72 72 71 71 71 71 70 71 71 70 69 69 69 68 68 68 68 68 68 69 68 69 69 69 69 69 69 70 69
29 20 16 16 15 17 15 14 12 11 10 10 11 10 12 12 13 11 11 10 9 9 20 20 16 20 25 27 22 61 63 64 64 64 64 63 63 64 65 65 64 64 64 66 67 67 73 72 72 72 72 72 72 72 72 73 73 73 73 73 73 72 73 73 72 72 72 72 71 71 72 72 71 71 71 71 70 69 69 69 69 69 68 68 68 68 68 68 69 70 70 69 70 70 70 69 70
19 14 20 15 16 16 14 13 13 13 11 12 12 17 31 14 14 13 11 12 11 12 10 10 14 13 19 15 20 61 63 64 65 66 64 63 64 65 65 64 63 62 63 65 66 70 71 72 72 72 72 72 72 72 72 73 73 73 73 73 73 73 73 73 72 72 72 72 72 72 72 71 71 71 71 70 70 69 69 70 69 69 68 68 68 68 68 69 69 70 70 70 70 70 70 70 69
15 14 16 16 15 14 13 13 13 12 11 13 12 13 13 13 13 13 12 11 11 11 10 15 15 15 14 14 18 58 64 65 65 64 65 64 64 65 67 65 64 62 63 64 65 69 70 72 72 72 71 72 72 73 73 73 73 73 73 73 73 73 73 73 73 73 72 72 72 72 71 71 70 70 70 70 69 69 68 69 69 68 68 68 68 68 68 68 69 70 70 70 71 71 70 70 70
14 12 14 15 16 14 12 12 11 12 12 13 12 13 13 13 13 12 12 11 11 11 14 20 17 21 14 16 40 63 65 64 63 65 65 64 65 67 66 66 64 64 63 64 66 66 69 70 72 72 72 72 72 73 73 73 73 73 73 73 73 73 73 73 73 72 72 72 71 71 71 71 70 69 69 68 69 68 68 68 68 68 68 69 69 69 69 69 70 70 70 70 70 70 70 70 70
13 13 12 14 15 14 12 12 11 12 12 13 11 13 13 13 13 12 11 11 11 11 9 20 9 12 9 16 36 64 65 65 65 65 65 65 64 66 65 65 63 64 65 66 65 67 67 68 70 72 72 72 72 73 73 73 73 73 73 73 73 73 73 73 72 72 72 71 71 71 70 70 69 68 68 68 68 68 68 67 68 69 69 69 69 69 69 70 70 70 70 71 70 70 70 70 71
12 12 12 13 13 13 12 11 10 13 12 12 12 12 13 13 12 12 11 10 10 10 9 12 10 15 16 18 61 65 63 65 66 65 65 64 65 64 65 64 64 66 66 67 66 65 66 67 66 69 70 71 72 73 73 73 73 73 73 73 73 73 72 72 72 71 71 71 71 70 69 68 68 68 68 68 67 67 67 67 68 68 69 69 69 69 69 69 69 70 70 70 70 70 70 70 70
10 12 12 12 13 12 11 10 11 10 11 11 13 13 13 13 12 12 11 10 10 9 11 12 13 19 20 29 56 59 62 64 65 66 65 64 64 64 64 65 67 65 67 67 65 65 64 64 66 67 69 70 70 73 73 73 73 73 73 73 73 72 72 72 71 71 71 70 69 69 68 68 67 66 65 66 65 65 66 66 67 68 69 69 69 69 69 69 69 70 70 70 69 70 69 68 68
11 10 12 12 11 11 11 9 11 9 10 11 12 13 13 15 13 12 11 10 9 19 28 24 16 19 20 30 27 54 61 64 65 65 65 63 63 62 66 66 65 66 66 65 65 65 63 63 64 67 69 66 68 71 72 73 73 73 73 72 72 72 72 71 71 71 70 70 69 69 68 67 66 66 66 66 65 65 65 66 67 68 68 68 68 69 69 69 69 69 69 69 69 69 69 67 67
16 10 13 13 11 10 9 10 12 9 9 11 11 13 12 12 13 12 11 11 10 43 26 23 30 19 41 32 48 57 62 64 65 65 65 64 62 63 63 64 64 66 66 66 65 64 64 62 64 65 66 67 69 69 70 73 73 73 72 72 72 72 71 71 70 70 70 69 68 67 67 67 66 66 66 65 66 65 66 66 67 67 68 68 68 69 69 69 69 69 69 69 69 69 68 67 66
14 13 14 10 9 9 10 9 10 8 10 10 12 12 11 11 12 12 12 10 10 32 28 42 32 47 44 48 59 60 63 65 66 65 65 64 61 61 62 63 63 64 65 65 65 65 65 64 64 65 65 64 67 69 70 71 71 73 72 72 72 72 71 71 70 69 69 68 68 68 68 67 68 67 68 65 66 67 66 65 67 67 68 68 68 69 69 69 69 69 68 69 68 67 68 68 67
17 16 11 10 9 8 9 9 9 10 8 10 11 11 11 10 11 10 12 13 10 35 32 51 53 51 57 59 60 61 63 65 65 64 64 63 62 61 61 62 62 62 63 64 64 64 65 66 66 65 66 65 66 69 69 71 72 71 71 72 71 71 70 70 70 68 68 68 67 67 67 66 65 66 67 66 65 65 66 66 67 67 68 68 69 69 68 68 67 67 68 69 69 68 70 68 68
13 10 10 8 9 9 10 9 9 9 9 10 10 11 11 10 10 11 15 22 22 35 32 45 44 55 60 59 60 62 63 65 65 65 64 64 61 62 62 63 62 62 62 63 63 63 65 65 66 64 65 66 67 69 69 70 71 70 70 69 69 69 69 69 67 67 67 65 65 64 66 66 65 66 67 66 67 67 66 67 67 68 68 69 69 68 67 67 68 69 69 69 70 70 68 58 58
12 10 8 8 9 9 10 10 9 9 10 9 11 9 10 10 10 11 13 8 21 25 25 43 37 47 56 60 61 62 63 64 65 65 64 64 62 62 63 63 62 62 62 62 62 64 64 64 66 66 66 67 67 67 68 70 70 70 69 69 69 69 69 68 67 66 66 66 65 66 65 66 66 68 68 68 68 66 67 68 69 68 68 68 69 68 64 68 69 69 69 70 70 66 59 56 55
12 10 7 7 8 8 9 9 9 9 9 10 9 10 9 10 10 9 9 8 6 19 24 23 30 29 56 60 61 62 63 63 64 65 65 64 64 64 64 64 62 62 63 63 63 64 64 65 66 67 66 67 67 66 67 68 70 68 69 68 68 68 67 66 66 68 67 67 65 66 65 67 66 66 67 67 65 64 63 62 65 63 63 62 67 63 63 61 67 62 65 67 60 60 59 62 61
13 11 9 7 10 7 8 9 9 9 9 9 9 8 8 9 9 8 8 7 7 11 23 23 28 27 55 59 60 61 62 62 63 64 64 65 64 63 64 64 65 64 64 62 62 63 65 65 66 66 66 66 67 67 67 68 70 68 68 68 68 68 66 65 65 67 67 68 66 66 67 67 67 67 68 67 66 65 63 61 60 61 60 60 62 63 62 64 63 62 63 62 62 64 64 65 64
12 12 13 13 8 10 10 8 8 8 8 8 8 8 9 8 8 9 8 7 9 10 23 22 19 41 55 56 59 61 63 63 63 64 64 64 64 64 64 63 62 62 63 62 63 63 65 66 66 66 65 66 67 66 66 68 68 68 68 68 67 66 65 65 65 65 67 67 67 68 67 65 66 65 66 67 66 66 64 62 59 61 63 62 66 64 67 67 66 65 65 67 66 65 64 64 63
13 10 15 10 12 12 9 9 8 7 7 8 7 8 7 7 7 8 7 7 5 34 47 36 43 54 55 55 60 61 62 63 64 65 65 65 65 65 64 64 64 64 63 64 62 64 65 65 66 66 65 65 67 65 67 68 67 68 68 68 67 66 64 64 65 67 68 67 68 68 68 66 65 65 67 67 66 67 66 66 65 63 66 65 68 67 67 66 65 65 67 66 63 63 60 63 61
15 12 8 13 15 12 8 10 8 8 7 7 6 7 7 7 6 6 7 7 5 33 41 49 50 55 56 56 60 62 63 64 64 65 65 64 65 65 65 64 65 64 64 64 62 64 65 66 67 65 64 65 65 66 66 66 67 69 68 67 66 67 65 65 66 68 67 66 68 68 68 68 66 66 66 66 67 67 67 67 65 65 67 66 68 67 67 67 67 65 66 63 63 62 61 63 60
14 12 9 17 15 12 9 10 10 7 6 7 9 7 6 6 7 18 13 7 27 47 42 47 54 54 56 57 61 64 64 64 64 65 65 65 65 65 65 64 64 64 64 64 64 64 65 66 66 65 64 62 64 66 66 66 67 67 68 67 68 67 66 67 68 66 67 65 66 68 67 67 66 65 67 65 67 67 67 68 68 68 67 67 68 69 68 67 65 64 63 62 59 62 61 63 62
13 13 11 17 18 13 11 11 10 9 7 10 7 6 6 8 13 6 9 17 42 34 37 50 52 57 55 58 63 64 64 64 64 65 65 64 64 65 66 65 65 64 65 65 64 62 65 66 65 65 64 65 66 65 66 67 68 67 68 67 67 67 66 67 67 66 66 66 66 68 67 67 67 67 66 66 67 66 67 68 68 68 68 68 69 68 68 67 66 64 64 64 65 64 63 62 61
14 13 11 15 17 13 12 12 11 10 9 12 11 5 7 9 10 6 3 34 32 26 33 47 50 55 58 62 63 63 63 63 63 64 64 64 63 63 64 63 64 64 65 65 64 64 64 65 65 65 66 66 67 66 67 67 67 67 68 67 66 67 68 66 65 66 66 67 67 67 67 67 66 67 68 67 67 66 66 65 67 68 68 68 68 68 68 67 65 63 66 67 68 66 63 62 61
14 13 12 15 13 16 14 11 10 12 10 14 11 8 7 9 7 10 11 27 29 28 33 47 50 54 57 60 61 61 61 62 62 62 64 63 63 64 65 65 64 64 64 66 65 65 64 65 64 65 65 68 68 66 66 67 67 67 67 67 67 67 67 66 65 66 67 68 68 67 67 67 67 67 68 68 67 65 66 67 67 69 69 70 70 69 67 67 66 65 67 67 64 63 62 62 58
14 14 11 10 10 11 16 18 14 11 12 11 11 7 6 8 10 11 8 27 31 29 30 41 52 56 57 60 60 60 61 61 62 62 62 63 64 64 65 64 65 63 63 65 66 65 64 64 64 65 65 67 68 67 67 67 67 67 67 67 68 68 65 64 65 66 67 66 66 67 67 66 66 67 67 69 67 66 68 68 68 68 69 71 70 69 66 66 66 66 65 63 63 61 60 61 58
10 11 11 10 10 9 10 15 14 11 13 11 13 7 2 1 7 11 13 24 31 28 29 34 52 57 59 60 61 61 62 62 62 62 64 65 64 64 65 64 65 65 64 64 65 65 64 64 65 65 67 66 68 68 68 67 68 67 67 67 67 67 66 66 65 67 66 65 65 66 67 67 67 68 68 68 68 66 68 69 68 68 69 69 68 67 67 67 67 65 63 63 64 61 59 60 59
12 9 8 7 10 8 9 12 15 14 10 11 12 9 3 1 2 11 18 27 36 31 28 32 50 57 59 60 61 61 61 62 63 63 64 64 64 63 64 64 65 64 65 65 64 64 63 64 65 65 67 67 67 68 68 68 67 69 68 67 68 68 65 66 67 67 66 66 65 66 67 68 68 68 68 68 68 69 67 68 68 69 69 69 69 69 69 67 67 65 65 66 63 60 61 60 60
13 8 8 6 7 6 9 9 12 14 13 15 10 5 4 2 1 10 37 42 42 33 31 35 51 59 60 60 61 61 61 61 63 64 64 64 65 64 63 64 64 65 65 65 64 64 64 64 65 65 66 66 67 68 68 68 68 68 68 68 68 68 66 66 68 67 66 67 66 64 67 69 68 68 68 68 70 70 68 69 68 69 69 69 68 68 67 66 66 64 65 65 65 62 60 61 61
12 9 9 7 5 5 10 12 10 11 12 15 12 7 4 6 3 20 39 43 46 33 33 41 50 56 58 60 61 61 60 60 61 63 64 65 64 64 64 64 65 66 66 66 65 64 64 64 65 65 65 67 67 67 68 67 68 67 67 67 68 67 67 67 67 66 67 66 66 65 67 69 70 69 70 70 71 69 68 68 68 69 69 69 68 67 66 65 65 65 64 63 63 63 59 60 58
13 14 13 7 4 4 5 9 8 7 10 12 14 10 6 10 12 22 40 41 42 33 34 40 46 50 58 61 62 62 60 60 60 62 64 65 65 65 64 65 65 66 66 66 65 65 64 64 64 65 65 67 67 67 68 68 69 68 69 68 68 67 67 68 67 67 68 67 66 67 67 70 70 70 70 70 70 68 68 68 68 69 68 67 67 65 64 65 66 65 64 63 64 63 59 60 59
11 11 10 5 6 4 2 10 10 8 7 6 11 12 8 8 13 19 36 39 39 34 36 43 48 46 57 62 61 61 60 60 60 63 65 65 65 65 64 65 65 66 66 66 66 65 64 65 65 65 65 65 67 67 66 66 67 66 66 66 66 66 67 67 68 67 68 66 67 67 68 70 68 70 69 70 70 69 68 68 68 68 67 67 65 65 63 63 65 64 64 63 63 62 59 57 57
11 11 8 4 9 6 3 5 11 9 6 5 6 12 10 8 12 24 28 38 40 39 39 46 53 52 57 60 61 60 61 60 61 63 65 65 65 65 65 66 66 66 66 66 65 66 65 64 64 64 64 65 65 64 64 65 66 65 66 64 65 66 66 67 67 68 67 66 67 67 68 69 70 69 69 69 69 67 67 67 67 66 66 65 65 66 65 64 64 64 62 63 61 61 58 58 58
13 12 7 7 7 3 4 3 9 9 8 5 7 6 10 11 10 23 33 36 37 39 40 48 55 55 55 57 59 60 61 61 63 63 64 65 64 66 66 65 66 65 65 66 65 65 65 65 64 64 64 64 64 65 65 65 66 65 65 64 66 66 66 65 67 69 68 67 67 67 68 68 68 69 68 69 69 68 66 65 65 65 65 65 65 64 64 63 63 63 63 62 59 57 58 58 59
15 13 9 5 3 3 5 2 7 9 6 5 5 4 5 11 10 17 32 39 43 43 43 49 54 54 55 55 57 60 60 60 62 62 64 63 65 65 65 66 66 65 65 65 66 66 65 65 64 64 64 64 64 64 64 65 67 68 67 68 68 65 68 68 67 68 68 68 68 69 68 68 68 68 69 68 67 66 66 65 65 65 64 64 63 62 62 62 62 62 61 60 59 58 57 58 58
13 11 9 4 4 1 4 3 4 8 8 5 9 6 6 11 14 16 31 36 42 49 53 53 52 53 54 56 58 60 59 59 61 62 62 63 63 64 65 65 65 66 65 66 66 65 65 64 65 64 65 65 65 66 65 67 68 68 67 67 66 66 66 67 67 68 68 67 67 67 67 66 66 66 66 65 65 65 65 65 64 64 64 63 62 61 61 61 61 60 60 59 60 56 54 54 57
15 10 7 5 2 2 2 3 4 7 9 6 7 12 11 10 10 11 26 39 42 46 51 54 54 55 55 58 59 60 58 58 59 61 62 63 63 64 64 64 65 65 65 65 66 66 65 65 65 66 67 68 66 67 67 67 67 68 67 67 67 66 66 65 65 65 66 66 65 65 66 65 65 64 64 64 63 64 64 64 63 63 63 63 62 60 59 58 57 57 59 58 59 58 54 56 55
12 12 9 6 4 3 2 4 3 7 9 7 11 11 11 13 7 7 26 36 36 43 47 50 51 55 56 57 58 58 60 60 59 60 61 63 63 64 65 65 64 64 65 66 66 66 66 65 66 67 69 68 67 67 67 67 67 67 65 65 64 64 63 64 63 64 64 63 64 64 64 64 63 62 62 62 62 62 63 63 63 62 62 61 60 59 58 57 57 55 56 57 57 59 56 54 55
15 13 13 9 5 4 1 3 3 5 6 7 8 8 8 11 16 24 31 33 35 45 47 47 50 52 55 56 57 57 58 59 59 60 61 62 63 63 64 64 64 64 65 66 66 66 67 68 67 66 65 65 66 67 67 66 65 65 65 65 65 64 63 64 65 66 64 63 64 63 64 64 62 62 63 61 61 62 62 62 62 61 60 60 59 58 57 57 56 56 55 55 55 55 54 51 54
11 13 13 12 6 4 1 4 3 5 5 6 5 4 7 8 14 24 25 30 30 40 45 47 49 52 54 55 56 57 57 58 58 60 61 62 63 63 63 64 64 64 66 66 67 66 66 65 65 65 65 65 66 66 66 65 65 65 65 66 66 65 64 65 65 63 63 64 63 61 62 63 60 61 61 59 60 60 61 60 60 60 58 57 55 55 56 56 55 55 56 55 54 53 54 50 49
10 13 11 9 7 5 2 3 4 3 5 6 6 4 8 10 22 26 25 30 29 28 39 47 49 52 54 55 56 57 58 58 57 59 61 62 62 63 63 63 64 65 66 66 66 65 64 64 64 64 64 65 66 65 65 66 66 66 66 66 65 65 65 63 62 62 62 63 61 61 61 62 63 61 59 59 59 58 59 59 59 58 56 55 54 54 54 54 55 55 54 54 53 52 52 50 49
11 14 11 9 7 5 3 2 2 5 9 12 9 4 4 5 16 23 27 28 27 25 39 45 46 49 53 55 57 57 57 58 58 58 60 61 62 63 64 64 65 65 66 66 66 64 64 64 64 65 64 65 66 65 66 66 66 67 66 65 65 65 63 62 61 61 60 62 62 61 61 61 60 59 59 58 58 57 57 57 56 56 56 54 53 54 54 53 53 53 53 53 52 51 51 51 50
10 12 10 8 7 8 8 7 5 8 9 10 9 4 0 5 17 24 28 29 25 24 34 40 44 46 50 55 56 56 56 57 57 58 59 61 62 63 64 64 65 65 66 66 64 64 64 64 65 65 65 65 65 65 66 66 66 66 65 65 65 64 63 62 60 58 59 61 60 60 61 60 59 58 57 58 58 57 58 57 56 55 56 55 53 52 52 51 52 52 51 52 52 51 50 51 50
10 11 9 10 11 9 11 11 9 9 9 9 2 2 1 4 7 21 30 30 25 27 32 36 40 42 48 54 56 56 56 57 57 58 59 61 62 63 63 63 64 64 65 65 63 63 64 64 63 64 64 65 64 65 66 66 65 65 65 65 64 64 62 61 60 59 60 61 59 59 59 58 58 56 57 57 58 57 57 56 56 55 54 54 52 52 51 50 49 49 49 49 50 51 51 51 50
9 10 9 10 9 11 10 10 12 9 9 8 1 3 4 2 12 15 29 30 24 28 29 30 37 40 47 51 56 57 57 57 57 57 59 60 61 62 63 63 63 64 65 64 63 63 63 63 63 63 63 64 64 65 65 65 66 65 65 65 64 64 63 62 61 60 60 60 59 58 58 57 55 55 56 56 56 56 55 56 55 54 53 53 52 50 50 49 48 48 49 49 50 49 50 50 49
8 11 12 10 10 10 12 7 10 9 9 7 1 6 7 8 4 15 30 33 26 29 30 29 35 43 47 49 55 56 58 57 57 58 60 60 60 61 62 63 63 63 64 64 63 63 63 63 64 64 63 64 65 66 66 65 66 65 65 64 65 64 62 60 61 61 61 60 59 58 57 56 55 56 56 55 54 54 54 56 55 54 52 52 51 51 50 49 48 46 49 48 49 48 49 50 50
7 10 10 12 12 10 12 5 9 8 7 10 8 11 14 9 10 10 21 27 22 20 23 30 35 37 47 49 53 56 57 58 58 58 58 59 61 62 62 63 64 64 64 65 64 64 63 62 63 63 63 64 64 64 66 66 66 65 65 65 63 62 62 61 62 61 60 59 60 58 57 56 55 55 54 54 54 55 55 55 54 53 52 52 51 50 48 48 49 48 49 50 48 48 48 48 48
6 9 10 12 13 13 9 12 10 11 10 14 14 15 15 13 24 15 18 23 22 23 24 28 33 35 44 53 55 55 56 57 58 58 59 59 60 62 63 63 63 63 64 64 64 64 63 63 63 64 64 64 63 64 65 66 66 66 65 62 62 62 62 63 61 60 59 60 60 58 56 55 54 54 55 54 54 54 54 53 53 51 51 50 49 48 47 47 49 48 47 48 47 47 47 47 48
7 7 11 12 10 9 18 19 25 19 13 11 20 18 21 19 24 31 26 23 26 36 34 37 47 50 54 54 55 55 56 56 58 58 58 59 60 62 62 63 63 64 64 63 63 64 63 63 63 63 63 63 63 64 65 65 64 64 63 61 61 61 60 60 60 59 59 59 58 56 55 55 55 54 54 54 54 54 53 52 51 51 51 50 49 48 48 48 48 48 48 47 48 48 47 46 46
6 7 7 11 12 11 18 10 14 12 12 14 19 11 16 15 14 29 24 20 31 42 45 43 46 50 51 52 55 56 56 57 58 59 59 59 60 61 62 63 63 63 64 64 63 64 63 63 63 63 63 63 64 64 64 65 64 63 62 61 60 60 60 59 60 58 58 57 56 55 54 54 54 54 53 54 53 53 52 52 51 50 50 48 47 46 46 48 48 46 47 46 46 47 47 47 46
7 7 10 10 14 15 15 14 12 11 11 11 18 12 13 10 20 22 24 23 29 35 38 40 45 47 48 51 54 55 57 58 58 58 59 59 60 62 62 63 63 63 64 63 63 63 64 64 63 64 63 63 64 64 64 64 63 62 61 61 61 59 60 59 60 58 57 55 54 54 54 54 54 53 53 53 52 51 51 50 50 49 49 48 47 48 47 48 47 47 46 45 46 46 45 46 46
12 10 8 10 16 17 12 15 14 12 9 13 12 12 10 10 19 23 23 22 26 28 32 36 43 45 47 49 53 55 57 58 58 58 58 59 60 61 62 63 63 63 64 64 63 63 63 64 64 64 64 64 64 64 65 64 63 61 61 60 60 58 57 57 57 57 56 54 53 53 53 54 53 53 53 52 50 50 50 49 49 48 47 46 45 46 46 46 46 46 46 45 45 44 43 44 44
12 12 10 10 19 13 11 18 10 7 9 8 12 11 12 18 16 21 21 23 27 30 35 38 40 43 48 52 56 57 57 58 58 57 58 59 60 61 62 63 63 63 64 64 63 63 62 63 63 63 63 63 63 64 64 63 62 61 60 60 59 58 57 56 57 57 55 53 55 53 53 53 52 52 52 50 50 49 48 48 47 46 45 45 46 46 46 46 45 45 45 44 43 41 40 41 42
11 11 11 9 13 14 12 14 10 9 9 12 12 13 17 16 16 22 22 25 26 30 37 41 41 43 48 54 57 57 58 58 58 58 58 59 60 61 62 62 63 63 63 63 63 62 62 63 62 62 63 63 63 62 63 62 61 60 60 60 58 58 57 56 56 54 53 52 53 53 54 52 53 51 50 49 48 49 48 47 46 45 44 42 43 44 44 45 44 44 45 44 43 41 40 39 41